This demonstration page uses our WeatherBlox Daily Observations layout. Learn more.

Hourly Observations for March 28, 2017

Temp ( °F °C ) Dew Point ( °F °C ) Humidity (%) Winds ( mph kmh ) Pressure ( in mb ) Visibility ( mi km ) Precip ( " mm )
12:15 am 00:15 Clear with Mist and Fog 40 4.3 38 3.5 95 95 SE 9 15 30.03 1017 5 8.0467 0 0
12:35 am 00:35 Clear with Mist and Fog 39 4.1 38 3.4 95 95 SE 9 15 30.03 1017 5 8.0467 0 0
12:55 am 00:55 Clear with Mist and Fog 38 3.6 37 3 96 96 SE 8 13 30.03 1017 4 6.43736 0 0
1:15 am 01:15 Clear with Mist and Fog 38 3.4 37 2.7 95 95 SE 6 9 30.06 1018 4 6.43736 0 0
1:35 am 01:35 Partly Cloudy with Mist and Fog 38 3.3 37 2.7 96 96 SE 6 9 30.06 1018 3 4.82802 0 0
1:55 am 01:55 Cloudy with Mist and Fog 38 3.6 37 3 96 96 SSE 5 7 30.06 1018 1.25 2.011675 0 0
2:15 am 02:15 Mostly Cloudy with Mist and Fog 39 3.8 38 3.2 96 96 SE 6 9 30.03 1017 3 4.82802 0 0
2:35 am 02:35 Partly Cloudy with Mist and Fog 39 3.7 38 3.1 96 96 SSE 5 7 30.03 1017 4 6.43736 0 0
2:55 am 02:55 Clear with Mist and Fog 39 3.7 38 3.2 97 97 SE 7 11 30.03 1017 5 8.0467 0 0
3:15 am 03:15 Clear with Mist and Fog 38 3.5 37 3 97 97 SE 7 11 30.03 1017 4 6.43736 0 0
3:35 am 03:35 Partly Cloudy with Mist and Fog 38 3.1 37 2.5 96 96 ESE 8 13 30.03 1017 3 4.82802 0 0
3:55 am 03:55 Cloudy with Mist and Fog 39 4 38 3.3 95 95 SE 6 9 30.03 1017 3 4.82802 0 0
4:15 am 04:15 Cloudy with Fog 40 4.5 39 4 97 97 SSE 6 9 30.03 1017 0.5 0.80467 0 0
4:35 am 04:35 Cloudy with Fog 41 5 40 4.5 97 97 SSE 7 11 30.03 1017 0.5 0.80467 0 0
4:55 am 04:55 Cloudy with Mist and Fog 41 5.1 40 4.6 97 97 SSE 8 13 30.03 1017 1 1.60934 0 0
5:15 am 05:15 Cloudy with Fog 41 5 40 4.5 97 97 SE 5 7 30.03 1017 0.5 0.80467 0 0
5:35 am 05:35 Cloudy with Fog 41 5.2 40 4.7 97 97 SE 5 7 30.06 1018 0.25 0.402335 0 0
5:55 am 05:55 Cloudy with Fog 41 5.2 40 4.7 97 97 SE 7 11 30.06 1018 0.25 0.402335 0 0
6:15 am 06:15 Cloudy with Fog 42 5.5 41 5 97 97 SE 3 6 30.06 1018 0.25 0.402335 0 0
6:35 am 06:35 Cloudy with Fog 42 5.6 41 5.1 97 97 ESE 3 6 30.06 1018 0.25 0.402335 0 0
6:55 am 06:55 Cloudy with Fog 42 5.8 42 5.3 97 97 ESE 6 9 30.06 1018 0.25 0.402335 0 0
7:15 am 07:15 Cloudy with Fog 42 5.8 42 5.5 98 98 ESE 5 7 30.09 1019 0.5 0.80467 0 0
7:35 am 07:35 Cloudy with Mist and Fog 42 5.7 42 5.4 98 98 ESE 5 7 30.09 1019 2 3.21868 0 0
7:55 am 07:55 Cloudy with Mist and Fog 42 5.7 42 5.3 97 97 E 8 13 30.09 1019 1 1.60934 0 0
8:15 am 08:15 Cloudy with Mist and Fog 42 5.8 42 5.5 98 98 E 10 17 30.09 1019 2.5 4.02335 0 0
8:35 am 08:35 Cloudy with Mist and Fog 42 5.8 42 5.4 97 97 ESE 12 19 30.09 1019 2.5 4.02335 0 0
8:55 am 08:55 Cloudy with Mist and Fog 43 6 42 5.6 97 97 ESE 13 20 30.09 1019 3 4.82802 0 0
9:15 am 09:15 Mostly Cloudy with Mist and Fog 44 6.7 43 6.3 97 97 ESE 12 19 30.06 1018 4 6.43736 0 0
9:35 am 09:35 Cloudy with Mist and Fog 45 7.1 44 6.7 97 97 ESE 12 19 30.06 1018 5 8.0467 0 0
9:55 am 09:55 Cloudy 46 7.6 45 7.2 97 97 SE 13 20 30.06 1018 7 11.26538 0 0
10:15 am 10:15 Cloudy 46 8 46 7.5 97 97 SE 15 24 30.06 1018 7 11.26538 0 0
10:35 am 10:35 Cloudy 48 8.8 45 7.4 91 91 ESE 14 22 30.06 1018 7 11.26538 0 0
10:55 am 10:55 Cloudy 48 9.1 44 6.7 85 85 ESE 12 19 30.06 1018 10 16.0934 0 0
11:15 am 11:15 Cloudy 50 9.9 43 5.9 76 76 SE 15 24 30.03 1017 10 16.0934 0 0
11:35 am 11:35 Cloudy 50 10.1 42 5.5 73 73 SE 14 22 30.03 1017 10 16.0934 0 0
11:55 am 11:55 Cloudy 50 10.2 42 5.5 73 73 ESE 13 20 30.03 1017 10 16.0934 0 0
12:15 pm 12:15 Cloudy 51 10.7 42 5.3 70 70 SE 14 22 30 1016 10 16.0934 0 0
12:35 pm 12:35 Cloudy 51 10.8 41 5.1 68 68 ESE 10 17 30 1016 10 16.0934 0 0
12:55 pm 12:55 Cloudy 52 11.1 42 5.4 68 68 ESE 13 20 30 1016 10 16.0934 0 0
1:15 pm 13:15 Cloudy 52 11.2 41 4.8 65 65 E 12 19 30 1016 10 16.0934 0 0
1:35 pm 13:35 Cloudy 52 11.1 40 4.7 65 65 ENE 13 20 30 1016 10 16.0934 0 0
1:55 pm 13:55 Cloudy 52 11.2 41 4.8 65 65 E 12 19 30 1016 10 16.0934 0 0
2:15 pm 14:15 Cloudy 53 11.6 41 4.8 63 63 E 14 22 30 1016 10 16.0934 0 0
2:35 pm 14:35 Cloudy 53 11.6 40 4.7 63 63 E 15 24 30 1016 10 16.0934 0 0
2:55 pm 14:55 Cloudy 53 11.5 40 4.7 63 63 E 15 24 29.97 1015 10 16.0934 0 0
3:15 pm 15:15 Cloudy 52 10.9 40 4.5 65 65 E 15 24 30 1016 10 16.0934 0 0
3:35 pm 15:35 Cloudy 51 10.7 40 4.6 66 66 E 16 26 29.97 1015 10 16.0934 0 0
3:55 pm 15:55 Cloudy 51 10.5 40 4.6 67 67 E 16 26 30 1016 10 16.0934 0 0
4:15 pm 16:15 Cloudy 50 10.1 40 4.6 69 69 E 12 19 30 1016 10 16.0934 0 0
4:35 pm 16:35 Cloudy 50 10 40 4.5 69 69 E 13 20 30 1016 10 16.0934 0 0
4:55 pm 16:55 Cloudy 50 9.8 40 4.5 70 70 E 13 20 30.03 1017 10 16.0934 0 0
5:15 pm 17:15 Cloudy 50 9.8 40 4.4 69 69 E 10 17 30.03 1017 10 16.0934 0 0
5:35 pm 17:35 Cloudy 49 9.6 40 4.6 71 71 ENE 14 22 30.03 1017 10 16.0934 0 0
5:55 pm 17:55 Cloudy with Light Rain 49 9.2 41 5 75 75 ENE 13 20 30.06 1018 10 16.0934 0 0
6:15 pm 18:15 Cloudy 47 8.6 40 4.7 77 77 ENE 15 24 30.06 1018 7 11.26538 0 0
6:35 pm 18:35 Cloudy with Light Rain 47 8.2 41 4.8 79 79 ENE 17 28 30.06 1018 7 11.26538 0 0
6:55 pm 18:55 Cloudy with Light Rain 46 7.5 41 5.1 85 85 ENE 15 24 30.06 1018 5 8.0467 0 0
7:15 pm 19:15 Cloudy with Light Rain 45 7.1 42 5.3 88 88 ENE 15 24 30.09 1019 5 8.0467 0.02 0.508
7:35 pm 19:35 Cloudy with Rain 44 6.8 42 5.5 92 92 ENE 10 17 30.09 1019 5 8.0467 0.06 1.524
7:55 pm 19:55 Cloudy with Rain 44 6.6 42 5.4 92 92 ENE 13 20 30.06 1018 4 6.43736 0.12 3.048
8:15 pm 20:15 Cloudy with Rain 44 6.5 42 5.4 93 93 ENE 12 19 30.06 1018 4 6.43736 0.05 1.27
8:35 pm 20:35 Cloudy with Rain 43 6.2 42 5.3 94 94 ENE 13 20 30.06 1018 3 4.82802 0.08 2.032
8:55 pm 20:55 Cloudy with Rain 43 6 41 5.1 94 94 ENE 12 19 30.09 1019 3 4.82802 0.11 2.794
9:15 pm 21:15 Cloudy with Light Rain 43 5.9 41 5 94 94 NE 16 26 30.09 1019 3 4.82802 0.02 0.508
9:35 pm 21:35 Cloudy with Light Rain 42 5.8 41 5 95 95 NE 16 26 30.09 1019 3 4.82802 0.05 1.27
9:55 pm 21:55 Cloudy with Light Rain 42 5.8 41 5 95 95 NE 13 20 30.09 1019 4 6.43736 0.06 1.524
10:15 pm 22:15 Cloudy with Light Drizzle 42 5.8 41 5 95 95 NE 13 20 30.09 1019 3 4.82802 0 0
10:35 pm 22:35 Cloudy with Light Rain 43 5.9 41 5 94 94 NE 12 19 30.09 1019 3 4.82802 0.01 0.254
10:55 pm 22:55 Cloudy with Light Rain 43 6 41 5.1 94 94 NE 13 20 30.12 1020 3 4.82802 0.03 0.762
11:15 pm 23:15 Cloudy with Rain 43 6 41 5.1 94 94 NE 9 15 30.12 1020 3 4.82802 0 0
11:35 pm 23:35 Cloudy with Rain 43 5.9 41 5.1 95 95 NE 15 24 30.12 1020 3 4.82802 0.01 0.254
11:55 pm 23:55 Cloudy with Light Drizzle 42 5.8 41 5.1 95 95 NE 13 20 30.09 1019 3 4.82802 0.01 0.254

Powered by AerisWeather